,,,PA_Meas_PMT16A,,PR_Meas_QMR101_102,,RH_Meas_QMH101,,SR_Meas_QMS101,,TA_Meas_QMH101,,GenWind,,GenWind,
date,time,status,PA,status,PR,status,RH,status,SR,status,TA,status,DirAvg,status,SpdAvg,
2009-09-24, 00:00:04,VALID,1009.89,VALID,0,VALID,99.1272,VALID,0,VALID,23.3415,VALID,20,VALID,0,
2009-09-24, 00:01:04,VALID,1009.87,VALID,0,VALID,99.1348,VALID,0.105969,VALID,23.3628,VALID,20,VALID,0,
2009-09-24, 00:02:04,VALID,1009.86,VALID,0,VALID,99.1348,VALID,0,VALID,23.3433,VALID,20,VALID,0,
2009-09-24, 00:03:04,VALID,1009.85,VALID,0,VALID,99.1195,VALID,0,VALID,23.3238,VALID,20,VALID,0,
2009-09-24, 00:04:04,VALID,1009.83,VALID,0,VALID,99.1424,VALID,0.105969,VALID,23.3238,VALID,20,VALID,0,
2009-09-24, 00:05:04,VALID,1009.83,VALID,0,VALID,99.1424,VALID,0,VALID,23.3043,VALID,20,VALID,0,
2009-09-24, 00:06:04,VALID,1009.8,VALID,0,VALID,99.1424,VALID,0,VALID,23.3043,VALID,20,VALID,0,
2009-09-24, 00:07:04,VALID,1009.8,VALID,0,VALID,99.1348,VALID,0,VALID,23.2831,VALID,20,VALID,0,
2009-09-24, 00:08:04,VALID,1009.81,VALID,0,VALID,99.1348,VALID,0,VALID,23.2848,VALID,20,VALID,0,
2009-09-24, 00:09:04,VALID,1009.79,VALID,0,VALID,99.1195,VALID,0,VALID,23.2654,VALID,20,VALID,0,
2009-09-24, 00:10:04,VALID,1009.8,VALID,0,VALID,99.1424,VALID,0,VALID,23.2654,VALID,20,VALID,0,
2009-09-24, 00:11:04,VALID,1009.81,VALID,0,VALID,99.1348,VALID,0,VALID,23.2459,VALID,20,VALID,0,
2009-09-24, 00:12:04,VALID,1009.81,VALID,0,VALID,99.1195,VALID,0,VALID,23.2441,VALID,20,VALID,0,
2009-09-24, 00:13:04,VALID,1009.82,VALID,0,VALID,99.1348,VALID,0,VALID,23.2654,VALID,20,VALID,0,
2009-09-24, 00:14:04,VALID,1009.8,VALID,0,VALID,99.1272,VALID,0,VALID,23.2654,VALID,20,VALID,0,
2009-09-24, 00:15:04,VALID,1009.77,VALID,0,VALID,99.1272,VALID,0.105969,VALID,23.2459,VALID,20,VALID,0,
2009-09-24, 00:16:04,VALID,1009.76,VALID,0,VALID,99.1195,VALID,0,VALID,23.2051,VALID,20,VALID,0,
2009-09-24, 00:17:04,VALID,1009.76,VALID,0,VALID,99.1043,VALID,0,VALID,23.2459,VALID,20,VALID,0,
2009-09-24, 00:18:04,VALID,1009.74,VALID,0,VALID,99.1119,VALID,0,VALID,23.2264,VALID,20,VALID,0,
2009-09-24, 00:19:04,VALID,1009.75,VALID,0,VALID,99.1195,VALID,0,VALID,23.2459,VALID,20,VALID,0,
2009-09-24, 00:20:04,VALID,1009.75,VALID,0,VALID,99.1195,VALID,0,VALID,23.2264,VALID,20,VALID,0,
2009-09-24, 00:21:04,VALID,1009.69,VALID,0,VALID,99.1195,VALID,0,VALID,23.2476,VALID,20,VALID,0,
2009-09-24, 00:22:04,VALID,1009.67,VALID,0,VALID,99.1195,VALID,0,VALID,23.2069,VALID,20,VALID,0,
2009-09-24, 00:23:04,VALID,1009.67,VALID,0,VALID,99.1195,VALID,0,VALID,23.1874,VALID,20,VALID,0,
2009-09-24, 00:24:04,VALID,1009.67,VALID,0,VALID,99.1195,VALID,0,VALID,23.1874,VALID,20,VALID,0,
2009-09-24, 00:25:04,VALID,1009.64,VALID,0,VALID,99.1348,VALID,0,VALID,23.1485,VALID,20,VALID,0,
2009-09-24, 00:26:04,VALID,1009.66,VALID,0,VALID,99.1424,VALID,0.105969,VALID,23.1679,VALID,20,VALID,0,
2009-09-24, 00:27:04,VALID,1009.68,VALID,0,VALID,99.1348,VALID,0.105969,VALID,23.1485,VALID,20,VALID,0,
2009-09-24, 00:28:04,VALID,1009.69,VALID,0,VALID,99.1424,VALID,0,VALID,23.129,VALID,20,VALID,0,
2009-09-24, 00:29:04,VALID,1009.72,VALID,0,VALID,99.1653,VALID,0,VALID,23.129,VALID,20,VALID,0,
2009-09-24, 00:30:04,VALID,1009.74,VALID,0,VALID,99.1272,VALID,0,VALID,23.1095,VALID,20,VALID,0,
2009-09-24, 00:31:04,VALID,1009.74,VALID,0,VALID,99.1272,VALID,0,VALID,23.1095,VALID,20,VALID,0,
2009-09-24, 00:32:04,VALID,1009.73,VALID,0,VALID,99.1195,VALID,0,VALID,23.129,VALID,20,VALID,0,
2009-09-24, 00:33:04,VALID,1009.73,VALID,0,VALID,99.1043,VALID,0,VALID,23.129,VALID,20,VALID,0,
2009-09-24, 00:34:04,VALID,1009.76,VALID,0,VALID,99.1119,VALID,0.105969,VALID,23.129,VALID,20,VALID,0,
2009-09-24, 00:35:04,VALID,1009.76,VALID,0,VALID,99.0967,VALID,0,VALID,23.129,VALID,20,VALID,0,
2009-09-24, 00:36:04,VALID,1009.74,VALID,0,VALID,99.1043,VALID,0.105969,VALID,23.1095,VALID,20,VALID,0,
2009-09-24, 00:37:04,VALID,1009.72,VALID,0,VALID,99.1195,VALID,0,VALID,23.1095,VALID,20,VALID,0,
2009-09-24, 00:38:04,VALID,1009.71,VALID,0,VALID,99.1195,VALID,0,VALID,23.09,VALID,20,VALID,0,
2009-09-24, 00:39:04,VALID,1009.69,VALID,0,VALID,99.1348,VALID,0,VALID,23.09,VALID,20,VALID,0,
2009-09-24, 00:40:04,VALID,1009.68,VALID,0,VALID,99.1119,VALID,0,VALID,23.0918,VALID,20,VALID,0,
2009-09-24, 00:41:04,VALID,1009.65,VALID,0,VALID,99.1424,VALID,0,VALID,23.0705,VALID,20,VALID,0,
2009-09-24, 00:42:04,VALID,1009.63,VALID,0,VALID,99.1348,VALID,0,VALID,23.0511,VALID,20,VALID,0,
2009-09-24, 00:43:04,VALID,1009.61,VALID,0,VALID,99.1424,VALID,0,VALID,23.0316,VALID,20,VALID,0,
2009-09-24, 00:44:04,VALID,1009.6,VALID,0,VALID,99.15,VALID,0,VALID,23.0103,VALID,20,VALID,0,
2009-09-24, 00:45:04,VALID,1009.59,VALID,0,VALID,99.1348,VALID,0.105969,VALID,23.0121,VALID,20,VALID,0,
2009-09-24, 00:46:04,VALID,1009.61,VALID,0,VALID,99.1577,VALID,0.105969,VALID,22.9926,VALID,20,VALID,0,
2009-09-24, 00:47:04,VALID,1009.61,VALID,0,VALID,99.1424,VALID,0.105969,VALID,22.9519,VALID,20,VALID,0,
2009-09-24, 00:48:04,VALID,1009.62,VALID,0,VALID,99.1805,VALID,0,VALID,22.9536,VALID,20,VALID,0,
2009-09-24, 00:49:04,VALID,1009.6,VALID,0,VALID,99.15,VALID,0.105969,VALID,22.9519,VALID,20,VALID,0,
2009-09-24, 00:50:04,VALID,1009.62,VALID,0,VALID,99.1348,VALID,0,VALID,22.9536,VALID,20,VALID,0,
2009-09-24, 00:51:04,VALID,1009.58,VALID,0,VALID,99.1195,VALID,0,VALID,22.9536,VALID,20,VALID,0,
2009-09-24, 00:52:04,VALID,1009.61,VALID,0,VALID,99.1119,VALID,0.105969,VALID,22.9731,VALID,20,VALID,0,
2009-09-24, 00:53:04,VALID,1009.59,VALID,0,VALID,99.1195,VALID,0,VALID,22.9536,VALID,20,VALID,0,
2009-09-24, 00:54:04,VALID,1009.59,VALID,0,VALID,99.1195,VALID,0,VALID,22.9324,VALID,20,VALID,0,
2009-09-24, 00:55:04,VALID,1009.57,VALID,0,VALID,99.1195,VALID,0.105969,VALID,22.9324,VALID,20,VALID,0,
2009-09-24, 00:56:04,VALID,1009.53,VALID,0,VALID,99.1119,VALID,0.105969,VALID,22.9324,VALID,20,VALID,0,
2009-09-24, 00:57:04,VALID,1009.54,VALID,0,VALID,99.1272,VALID,0,VALID,22.9536,VALID,20,VALID,0,
2009-09-24, 00:58:04,VALID,1009.53,VALID,0,VALID,99.1043,VALID,0.105969,VALID,22.9342,VALID,20,VALID,0,
2009-09-24, 00:59:04,VALID,1009.54,VALID,0,VALID,99.1119,VALID,0.105969,VALID,22.9324,VALID,20,VALID,0,
2009-09-24, 01:00:04,VALID,1009.53,VALID,0,VALID,99.1195,VALID,0,VALID,22.9536,VALID,20,VALID,0,
2009-09-24, 01:01:04,VALID,1009.49,VALID,0,VALID,99.1119,VALID,0.105969,VALID,22.9324,VALID,20,VALID,0,
2009-09-24, 01:02:04,VALID,1009.51,VALID,0,VALID,99.1119,VALID,0.105969,VALID,22.9342,VALID,20,VALID,0,
2009-09-24, 01:03:04,VALID,1009.5,VALID,0,VALID,99.1043,VALID,0.105969,VALID,22.9324,VALID,20,VALID,0,
2009-09-24, 01:04:04,VALID,1009.47,VALID,0,VALID,99.0967,VALID,0.105969,VALID,22.9324,VALID,20,VALID,0,
2009-09-24, 01:05:04,VALID,1009.47,VALID,0,VALID,99.0967,VALID,0.105969,VALID,22.9129,VALID,20,VALID,0,
2009-09-24, 01:06:04,VALID,1009.49,VALID,0,VALID,99.1043,VALID,0,VALID,22.8935,VALID,20,VALID,0,
2009-09-24, 01:07:04,VALID,1009.48,VALID,0,VALID,99.1119,VALID,0.105969,VALID,22.9147,VALID,20,VALID,0,
2009-09-24, 01:08:04,VALID,1009.52,VALID,0,VALID,99.1195,VALID,0,VALID,22.874,VALID,20,VALID,0,
2009-09-24, 01:09:04,VALID,1009.5,VALID,0,VALID,99.1119,VALID,0.105969,VALID,22.8545,VALID,20,VALID,0,
2009-09-24, 01:10:04,VALID,1009.51,VALID,0,VALID,99.0738,VALID,0.105969,VALID,22.8935,VALID,20,VALID,0,
2009-09-24, 01:11:04,VALID,1009.48,VALID,0,VALID,99.0738,VALID,0,VALID,22.8952,VALID,20,VALID,0,
2009-09-24, 01:12:04,VALID,1009.47,VALID,0,VALID,99.0662,VALID,0.105969,VALID,22.9147,VALID,20,VALID,0,
2009-09-24, 01:13:04,VALID,1009.45,VALID,0,VALID,99.0662,VALID,0.105969,VALID,22.8935,VALID,20,VALID,0,
2009-09-24, 01:14:04,VALID,1009.43,VALID,0,VALID,99.0585,VALID,0,VALID,22.8935,VALID,20,VALID,0,
2009-09-24, 01:15:04,VALID,1009.43,VALID,0,VALID,99.0585,VALID,0.105969,VALID,22.9129,VALID,20,VALID,0,
2009-09-24, 01:16:04,VALID,1009.38,VALID,0,VALID,99.0509,VALID,0,VALID,22.874,VALID,20,VALID,0,
2009-09-24, 01:17:04,VALID,1009.41,VALID,0,VALID,99.0814,VALID,0.105969,VALID,22.9147,VALID,20,VALID,0,
2009-09-24, 01:18:04,VALID,1009.41,VALID,0,VALID,99.0814,VALID,0.105969,VALID,22.874,VALID,20,VALID,0,
2009-09-24, 01:19:04,VALID,1009.44,VALID,0,VALID,99.0738,VALID,0.105969,VALID,22.8952,VALID,20,VALID,0,
2009-09-24, 01:20:04,VALID,1009.45,VALID,0,VALID,99.0585,VALID,0.105969,VALID,22.9147,VALID,20,VALID,0,
2009-09-24, 01:21:04,VALID,1009.44,VALID,0,VALID,99.0357,VALID,0.105969,VALID,22.9147,VALID,20,VALID,0,
2009-09-24, 01:22:04,VALID,1009.41,VALID,0,VALID,99.0433,VALID,0,VALID,22.8952,VALID,20,VALID,0,
2009-09-24, 01:23:04,VALID,1009.4,VALID,0,VALID,99.0662,VALID,0.105969,VALID,22.9147,VALID,20,VALID,0,
2009-09-24, 01:24:04,VALID,1009.37,VALID,0,VALID,99.0585,VALID,0.105969,VALID,22.874,VALID,20,VALID,0,
2009-09-24, 01:25:04,VALID,1009.32,VALID,0,VALID,99.0585,VALID,0.105969,VALID,22.874,VALID,20,VALID,0,
2009-09-24, 01:26:04,VALID,1009.31,VALID,0,VALID,99.0509,VALID,0.105969,VALID,22.8952,VALID,20,VALID,0,
2009-09-24, 01:27:04,VALID,1009.29,VALID,0,VALID,99.0509,VALID,0.105969,VALID,22.8952,VALID,20,VALID,0,
2009-09-24, 01:28:04,VALID,1009.32,VALID,0,VALID,99.0509,VALID,0.105969,VALID,22.8935,VALID,20,VALID,0,
2009-09-24, 01:29:04,VALID,1009.33,VALID,0,VALID,99.0357,VALID,0.105969,VALID,22.9147,VALID,20,VALID,0,
2009-09-24, 01:30:04,VALID,1009.34,VALID,0,VALID,99.028,VALID,0.105969,VALID,22.9129,VALID,20,VALID,0,
2009-09-24, 01:31:04,VALID,1009.33,VALID,0,VALID,99.0052,VALID,0.105969,VALID,22.9324,VALID,20,VALID,0,
2009-09-24, 01:32:04,VALID,1009.34,VALID,0,VALID,99.0128,VALID,0.105969,VALID,22.9519,VALID,20,VALID,0,
2009-09-24, 01:33:04,VALID,1009.33,VALID,0,VALID,99.0204,VALID,0.105969,VALID,22.9536,VALID,20,VALID,0,
2009-09-24, 01:34:04,VALID,1009.33,VALID,0,VALID,99.0433,VALID,0.105969,VALID,22.9536,VALID,20,VALID,0,
2009-09-24, 01:35:04,VALID,1009.34,VALID,0,VALID,99.0204,VALID,0.105969,VALID,22.9342,VALID,20,VALID,0,
2009-09-24, 01:36:04,VALID,1009.32,VALID,0,VALID,99.0433,VALID,0,VALID,22.8935,VALID,20,VALID,0,
2009-09-24, 01:37:04,VALID,1009.34,VALID,0,VALID,99.0128,VALID,0,VALID,22.9129,VALID,20,VALID,0,
2009-09-24, 01:38:04,VALID,1009.3,VALID,0,VALID,99.0204,VALID,0.105969,VALID,22.9342,VALID,20,VALID,0,
2009-09-24, 01:39:04,VALID,1009.3,VALID,0,VALID,99.0204,VALID,0.105969,VALID,22.9342,VALID,20,VALID,0,
2009-09-24, 01:40:04,VALID,1009.26,VALID,0,VALID,99.0357,VALID,0.105969,VALID,22.8935,VALID,20,VALID,0,
2009-09-24, 01:41:04,VALID,1009.28,VALID,0,VALID,99.0509,VALID,0.105969,VALID,22.9147,VALID,20,VALID,0,
2009-09-24, 01:42:04,VALID,1009.29,VALID,0,VALID,99.0433,VALID,0.105969,VALID,22.9147,VALID,20,VALID,0,
2009-09-24, 01:43:04,VALID,1009.31,VALID,0,VALID,99.0738,VALID,0.105969,VALID,22.8545,VALID,20,VALID,0,
2009-09-24, 01:44:04,VALID,1009.32,VALID,0,VALID,99.0738,VALID,0.105969,VALID,22.835,VALID,20,VALID,0,
2009-09-24, 01:45:04,VALID,1009.34,VALID,0,VALID,99.0357,VALID,0.105969,VALID,22.8757,VALID,20,VALID,0,
2009-09-24, 01:46:04,VALID,1009.36,VALID,0,VALID,98.9899,VALID,0.105969,VALID,22.8952,VALID,20,VALID,0,
2009-09-24, 01:47:04,VALID,1009.37,VALID,0,VALID,98.9747,VALID,0,VALID,22.9342,VALID,20,VALID,0,
2009-09-24, 01:48:04,VALID,1009.36,VALID,0,VALID,98.967,VALID,0.105969,VALID,22.9536,VALID,20,VALID,0,
2009-09-24, 01:49:04,VALID,1009.34,VALID,0,VALID,98.9899,VALID,0,VALID,22.9536,VALID,20,VALID,0,
2009-09-24, 01:50:04,VALID,1009.35,VALID,0,VALID,98.9899,VALID,0,VALID,22.9342,VALID,20,VALID,0,
2009-09-24, 01:51:04,VALID,1009.34,VALID,0,VALID,99.0052,VALID,0,VALID,22.9536,VALID,20,VALID,0,
2009-09-24, 01:52:04,VALID,1009.32,VALID,0,VALID,99.0128,VALID,0.105969,VALID,22.9129,VALID,14,VALID,0,
2009-09-24, 01:53:04,VALID,1009.33,VALID,0,VALID,98.9823,VALID,0.105969,VALID,22.9536,VALID,13,VALID,0,
2009-09-24, 01:54:04,VALID,1009.29,VALID,0,VALID,98.9899,VALID,0.105969,VALID,22.9536,VALID,13,VALID,0,
2009-09-24, 01:55:04,VALID,1009.3,VALID,0,VALID,99.0052,VALID,0.105969,VALID,22.9324,VALID,13,VALID,0,
2009-09-24, 01:56:04,VALID,1009.29,VALID,0,VALID,99.0128,VALID,0.105969,VALID,22.9129,VALID,13,VALID,0,
2009-09-24, 01:57:04,VALID,1009.28,VALID,0,VALID,99.028,VALID,0,VALID,22.9342,VALID,13,VALID,0,
2009-09-24, 01:58:04,VALID,1009.29,VALID,0,VALID,99.0357,VALID,0.105969,VALID,22.8952,VALID,13,VALID,0,
2009-09-24, 01:59:04,VALID,1009.28,VALID,0,VALID,99.028,VALID,0,VALID,22.8545,VALID,13,VALID,0,
2009-09-24, 02:00:04,VALID,1009.29,VALID,0,VALID,99.028,VALID,0.105969,VALID,22.8562,VALID,13,VALID,0,
2009-09-24, 02:01:04,VALID,1009.3,VALID,0,VALID,99.0509,VALID,0.105969,VALID,22.8562,VALID,13,VALID,0,
2009-09-24, 02:02:04,VALID,1009.29,VALID,0,VALID,99.0128,VALID,0,VALID,22.8757,VALID,13,VALID,0,
2009-09-24, 02:03:04,VALID,1009.25,VALID,0,VALID,99.0052,VALID,0,VALID,22.8757,VALID,13,VALID,0,
2009-09-24, 02:04:04,VALID,1009.24,VALID,0,VALID,99.0204,VALID,0.105969,VALID,22.8757,VALID,13,VALID,0,
2009-09-24, 02:05:04,VALID,1009.23,VALID,0,VALID,99.028,VALID,0,VALID,22.8545,VALID,13,VALID,0,
2009-09-24, 02:06:04,VALID,1009.25,VALID,0,VALID,99.0204,VALID,0.105969,VALID,22.8545,VALID,13,VALID,0,
2009-09-24, 02:07:04,VALID,1009.21,VALID,0,VALID,99.028,VALID,0.105969,VALID,22.8757,VALID,13,VALID,0.419922,
2009-09-24, 02:08:04,VALID,1009.21,VALID,0,VALID,99.0357,VALID,0,VALID,22.8562,VALID,13,VALID,0,
2009-09-24, 02:09:04,VALID,1009.19,VALID,0,VALID,99.0204,VALID,0.105969,VALID,22.8368,VALID,13,VALID,0,
2009-09-24, 02:10:04,VALID,1009.16,VALID,0,VALID,99.0433,VALID,0.105969,VALID,22.8368,VALID,13,VALID,0,
2009-09-24, 02:11:04,VALID,1009.15,VALID,0,VALID,99.0357,VALID,0.105969,VALID,22.8173,VALID,13,VALID,0.135547,
2009-09-24, 02:12:04,VALID,1009.19,VALID,0,VALID,99.0509,VALID,0.105969,VALID,22.8173,VALID,13,VALID,0,
2009-09-24, 02:13:04,VALID,1009.15,VALID,0,VALID,99.0204,VALID,0.105969,VALID,22.8173,VALID,13,VALID,0,
2009-09-24, 02:14:04,VALID,1009.21,VALID,0,VALID,99.0204,VALID,0.105969,VALID,22.8368,VALID,13,VALID,0,
2009-09-24, 02:15:04,VALID,1009.2,VALID,0,VALID,99.0128,VALID,0,VALID,22.7978,VALID,13,VALID,0,
2009-09-24, 02:16:04,VALID,1009.2,VALID,0,VALID,99.028,VALID,0.105969,VALID,22.8173,VALID,13,VALID,0,
2009-09-24, 02:17:04,VALID,1009.21,VALID,0,VALID,99.0204,VALID,0,VALID,22.8173,VALID,13,VALID,0,
2009-09-24, 02:18:04,VALID,1009.21,VALID,0,VALID,99.0433,VALID,0,VALID,22.7978,VALID,13,VALID,0,
2009-09-24, 02:19:04,VALID,1009.22,VALID,0,VALID,99.0204,VALID,0.105969,VALID,22.8173,VALID,13,VALID,0,
2009-09-24, 02:20:04,VALID,1009.21,VALID,0,VALID,99.0128,VALID,0.105969,VALID,22.8173,VALID,13,VALID,0,
2009-09-24, 02:21:04,VALID,1009.24,VALID,0,VALID,98.9975,VALID,0,VALID,22.8173,VALID,13,VALID,0,
2009-09-24, 02:22:04,VALID,1009.24,VALID,0,VALID,99.0052,VALID,0,VALID,22.8173,VALID,13,VALID,0,
2009-09-24, 02:23:04,VALID,1009.23,VALID,0,VALID,99.0052,VALID,0,VALID,22.8173,VALID,13,VALID,0,
2009-09-24, 02:24:04,VALID,1009.21,VALID,0,VALID,99.028,VALID,0,VALID,22.7783,VALID,13,VALID,0,
2009-09-24, 02:25:04,VALID,1009.23,VALID,0,VALID,99.0128,VALID,0.105969,VALID,22.7978,VALID,13,VALID,0,
2009-09-24, 02:26:04,VALID,1009.21,VALID,0,VALID,98.9975,VALID,0.105969,VALID,22.7978,VALID,13,VALID,0,
2009-09-24, 02:27:04,VALID,1009.23,VALID,0,VALID,99.0052,VALID,0,VALID,22.7978,VALID,13,VALID,0,
2009-09-24, 02:28:04,VALID,1009.22,VALID,0,VALID,99.0052,VALID,0,VALID,22.7978,VALID,13,VALID,0,
2009-09-24, 02:29:04,VALID,1009.21,VALID,0,VALID,98.9899,VALID,0,VALID,22.8173,VALID,13,VALID,0,
2009-09-24, 02:30:04,VALID,1009.23,VALID,0,VALID,98.967,VALID,0,VALID,22.8368,VALID,13,VALID,0,
2009-09-24, 02:31:04,VALID,1009.24,VALID,0,VALID,98.967,VALID,0,VALID,22.8368,VALID,13,VALID,0,
2009-09-24, 02:32:04,VALID,1009.23,VALID,0,VALID,98.9518,VALID,0,VALID,22.8775,VALID,13,VALID,0,
2009-09-24, 02:33:04,VALID,1009.21,VALID,0,VALID,98.9747,VALID,0,VALID,22.858,VALID,13,VALID,0,
2009-09-24, 02:34:04,VALID,1009.21,VALID,0,VALID,98.9975,VALID,0,VALID,22.8368,VALID,13,VALID,0,
2009-09-24, 02:35:04,VALID,1009.2,VALID,0,VALID,98.9899,VALID,0,VALID,22.8173,VALID,13,VALID,0,
2009-09-24, 02:36:04,VALID,1009.22,VALID,0,VALID,99.0052,VALID,0.105969,VALID,22.8173,VALID,13,VALID,0,
2009-09-24, 02:37:04,VALID,1009.21,VALID,0,VALID,99.0052,VALID,0,VALID,22.7978,VALID,13,VALID,0,
2009-09-24, 02:38:04,VALID,1009.21,VALID,0,VALID,98.9975,VALID,0.105969,VALID,22.7783,VALID,13,VALID,0,
2009-09-24, 02:39:04,VALID,1009.2,VALID,0,VALID,98.9975,VALID,0.105969,VALID,22.7783,VALID,13,VALID,0,
2009-09-24, 02:40:04,VALID,1009.22,VALID,0,VALID,99.0052,VALID,0,VALID,22.7588,VALID,13,VALID,0,
2009-09-24, 02:41:04,VALID,1009.24,VALID,0,VALID,98.9899,VALID,0,VALID,22.7978,VALID,13,VALID,0,
2009-09-24, 02:42:04,VALID,1009.23,VALID,0,VALID,98.9594,VALID,0,VALID,22.819,VALID,13,VALID,0,
2009-09-24, 02:43:04,VALID,1009.23,VALID,0,VALID,98.9594,VALID,0,VALID,22.8173,VALID,13,VALID,0,
2009-09-24, 02:44:04,VALID,1009.24,VALID,0,VALID,98.9823,VALID,0.105969,VALID,22.7978,VALID,13,VALID,0,
2009-09-24, 02:45:04,VALID,1009.24,VALID,0,VALID,98.967,VALID,0.105969,VALID,22.8173,VALID,13,VALID,0,
2009-09-24, 02:46:04,VALID,1009.24,VALID,0,VALID,98.9594,VALID,0.105969,VALID,22.8173,VALID,13,VALID,0,
2009-09-24, 02:47:04,VALID,1009.27,VALID,0,VALID,98.9518,VALID,0.105969,VALID,22.8368,VALID,13,VALID,0,
2009-09-24, 02:48:04,VALID,1009.3,VALID,0,VALID,98.9365,VALID,0.105969,VALID,22.8562,VALID,13,VALID,0,
2009-09-24, 02:49:04,VALID,1009.33,VALID,0,VALID,98.9365,VALID,0.105969,VALID,22.8368,VALID,13,VALID,0,
2009-09-24, 02:50:04,VALID,1009.34,VALID,0,VALID,98.9747,VALID,0,VALID,22.8368,VALID,13,VALID,0,
2009-09-24, 02:51:04,VALID,1009.35,VALID,0,VALID,98.9594,VALID,0.105969,VALID,22.8368,VALID,13,VALID,0,
2009-09-24, 02:52:04,VALID,1009.34,VALID,0,VALID,98.967,VALID,0.105969,VALID,22.8368,VALID,13,VALID,0,
2009-09-24, 02:53:04,VALID,1009.34,VALID,0,VALID,98.9823,VALID,0.105969,VALID,22.8173,VALID,13,VALID,0,
2009-09-24, 02:54:04,VALID,1009.32,VALID,0,VALID,98.9747,VALID,0,VALID,22.8173,VALID,13,VALID,0,
2009-09-24, 02:55:04,VALID,1009.31,VALID,0,VALID,98.9823,VALID,0.105969,VALID,22.8173,VALID,13,VALID,0,
2009-09-24, 02:56:04,VALID,1009.33,VALID,0,VALID,98.9747,VALID,0.105969,VALID,22.8173,VALID,13,VALID,0,
2009-09-24, 02:57:04,VALID,1009.32,VALID,0,VALID,98.9823,VALID,0.105969,VALID,22.7978,VALID,13,VALID,0,
2009-09-24, 02:58:04,VALID,1009.34,VALID,0,VALID,98.9823,VALID,0.105969,VALID,22.8173,VALID,13,VALID,0,
2009-09-24, 02:59:04,VALID,1009.34,VALID,0,VALID,98.9823,VALID,0,VALID,22.78,VALID,13,VALID,0,
2009-09-24, 03:00:04,VALID,1009.38,VALID,0,VALID,98.967,VALID,0,VALID,22.78,VALID,13,VALID,0,
2009-09-24, 03:01:04,VALID,1009.42,VALID,0,VALID,98.9518,VALID,0,VALID,22.7995,VALID,13,VALID,0,
2009-09-24, 03:02:04,VALID,1009.44,VALID,0,VALID,98.9594,VALID,0,VALID,22.819,VALID,13,VALID,0,
2009-09-24, 03:03:04,VALID,1009.45,VALID,0,VALID,98.9365,VALID,0,VALID,22.819,VALID,13,VALID,0,
2009-09-24, 03:04:04,VALID,1009.48,VALID,0,VALID,98.9518,VALID,0,VALID,22.819,VALID,13,VALID,0,
2009-09-24, 03:05:04,VALID,1009.5,VALID,0,VALID,98.9594,VALID,0,VALID,22.819,VALID,13,VALID,0,
2009-09-24, 03:06:04,VALID,1009.48,VALID,0,VALID,98.967,VALID,0,VALID,22.8207,VALID,13,VALID,0,
2009-09-24, 03:07:04,VALID,1009.49,VALID,0,VALID,98.9747,VALID,0,VALID,22.7995,VALID,13,VALID,0,
2009-09-24, 03:08:04,VALID,1009.48,VALID,0,VALID,99.0128,VALID,0,VALID,22.78,VALID,13,VALID,0,
2009-09-24, 03:09:04,VALID,1009.46,VALID,0,VALID,98.967,VALID,0,VALID,22.78,VALID,13,VALID,0,
2009-09-24, 03:10:04,VALID,1009.49,VALID,0,VALID,98.967,VALID,0,VALID,22.7606,VALID,13,VALID,0,
2009-09-24, 03:11:04,VALID,1009.52,VALID,0,VALID,98.9899,VALID,0,VALID,22.7606,VALID,13,VALID,0,
2009-09-24, 03:12:04,VALID,1009.55,VALID,0,VALID,98.9975,VALID,0,VALID,22.7606,VALID,13,VALID,0,
2009-09-24, 03:13:04,VALID,1009.54,VALID,0,VALID,99.0052,VALID,0,VALID,22.7606,VALID,13,VALID,0,
2009-09-24, 03:14:04,VALID,1009.55,VALID,0,VALID,98.967,VALID,0,VALID,22.78,VALID,13,VALID,0,
2009-09-24, 03:15:04,VALID,1009.55,VALID,0,VALID,98.9594,VALID,0.105969,VALID,22.7588,VALID,13,VALID,0,
2009-09-24, 03:16:04,VALID,1009.53,VALID,0,VALID,98.9594,VALID,0.105969,VALID,22.7394,VALID,13,VALID,0,
2009-09-24, 03:17:04,VALID,1009.54,VALID,0,VALID,98.9823,VALID,0.105969,VALID,22.7376,VALID,13,VALID,0,
2009-09-24, 03:18:04,VALID,1009.56,VALID,0,VALID,98.9823,VALID,0.105969,VALID,22.7394,VALID,13,VALID,0,
2009-09-24, 03:19:04,VALID,1009.53,VALID,0,VALID,98.9823,VALID,0.105969,VALID,22.7182,VALID,13,VALID,0,
2009-09-24, 03:20:04,VALID,1009.53,VALID,0,VALID,98.9823,VALID,0.105969,VALID,22.7199,VALID,13,VALID,0,
2009-09-24, 03:21:04,VALID,1009.55,VALID,0,VALID,98.9823,VALID,0.105969,VALID,22.7004,VALID,13,VALID,0,
2009-09-24, 03:22:04,VALID,1009.55,VALID,0,VALID,98.9899,VALID,0.105969,VALID,22.7004,VALID,13,VALID,0,
2009-09-24, 03:23:04,VALID,1009.56,VALID,0,VALID,98.9899,VALID,0.105969,VALID,22.6809,VALID,13,VALID,0,
2009-09-24, 03:24:04,VALID,1009.57,VALID,0,VALID,98.9823,VALID,0.105969,VALID,22.6809,VALID,13,VALID,0,
2009-09-24, 03:25:04,VALID,1009.57,VALID,0,VALID,98.9823,VALID,0.105969,VALID,22.7004,VALID,13,VALID,0,
2009-09-24, 03:26:04,VALID,1009.57,VALID,0,VALID,98.9899,VALID,0.105969,VALID,22.6809,VALID,13,VALID,0,
2009-09-24, 03:27:04,VALID,1009.54,VALID,0,VALID,98.9975,VALID,0.105969,VALID,22.6809,VALID,13,VALID,0,
2009-09-24, 03:28:04,VALID,1009.5,VALID,0,VALID,98.9899,VALID,0.105969,VALID,22.6614,VALID,13,VALID,0,
2009-09-24, 03:29:04,VALID,1009.49,VALID,0,VALID,98.9823,VALID,0,VALID,22.6632,VALID,13,VALID,0,
2009-09-24, 03:30:04,VALID,1009.5,VALID,0,VALID,98.9975,VALID,0,VALID,22.6437,VALID,13,VALID,0,
2009-09-24, 03:31:04,VALID,1009.51,VALID,0,VALID,98.9747,VALID,0,VALID,22.6437,VALID,13,VALID,0,
2009-09-24, 03:32:04,VALID,1009.52,VALID,0,VALID,98.9899,VALID,0,VALID,22.6437,VALID,13,VALID,0,
2009-09-24, 03:33:04,VALID,1009.53,VALID,0,VALID,98.9899,VALID,0,VALID,22.6437,VALID,13,VALID,0,
2009-09-24, 03:34:04,VALID,1009.56,VALID,0,VALID,98.967,VALID,0,VALID,22.6242,VALID,13,VALID,0,
2009-09-24, 03:35:04,VALID,1009.54,VALID,0,VALID,98.9747,VALID,0,VALID,22.6437,VALID,13,VALID,0,
2009-09-24, 03:36:04,VALID,1009.56,VALID,0,VALID,98.9747,VALID,0,VALID,22.6437,VALID,13,VALID,0,
2009-09-24, 03:37:04,VALID,1009.6,VALID,0,VALID,98.9442,VALID,0,VALID,22.6632,VALID,13,VALID,0,
2009-09-24, 03:38:04,VALID,1009.59,VALID,0,VALID,98.9289,VALID,0,VALID,22.6826,VALID,13,VALID,0,
2009-09-24, 03:39:04,VALID,1009.59,VALID,0,VALID,98.9289,VALID,0,VALID,22.6826,VALID,13,VALID,0,
2009-09-24, 03:40:04,VALID,1009.6,VALID,0,VALID,98.967,VALID,0,VALID,22.6826,VALID,13,VALID,0,
2009-09-24, 03:41:04,VALID,1009.6,VALID,0,VALID,98.967,VALID,0,VALID,22.6632,VALID,13,VALID,0,
2009-09-24, 03:42:04,VALID,1009.62,VALID,0,VALID,98.9747,VALID,0,VALID,22.6632,VALID,13,VALID,0,
2009-09-24, 03:43:04,VALID,1009.61,VALID,0,VALID,98.9594,VALID,0,VALID,22.6632,VALID,13,VALID,0,
2009-09-24, 03:44:04,VALID,1009.63,VALID,0,VALID,98.9442,VALID,0.105969,VALID,22.6614,VALID,13,VALID,0,
2009-09-24, 03:45:04,VALID,1009.64,VALID,0,VALID,98.9747,VALID,0.105969,VALID,22.6614,VALID,13,VALID,0,
2009-09-24, 03:46:04,VALID,1009.66,VALID,0,VALID,98.967,VALID,0.105969,VALID,22.642,VALID,13,VALID,0,
2009-09-24, 03:47:04,VALID,1009.67,VALID,0,VALID,98.9747,VALID,0.105969,VALID,22.6614,VALID,13,VALID,0,
2009-09-24, 03:48:04,VALID,1009.7,VALID,0,VALID,98.9823,VALID,0.105969,VALID,22.6225,VALID,13,VALID,0,
2009-09-24, 03:49:04,VALID,1009.72,VALID,0,VALID,98.9823,VALID,0.105969,VALID,22.603,VALID,13,VALID,0,
2009-09-24, 03:50:04,VALID,1009.76,VALID,0,VALID,98.9975,VALID,0.105969,VALID,22.603,VALID,13,VALID,0,
2009-09-24, 03:51:04,VALID,1009.78,VALID,0,VALID,98.9899,VALID,0.105969,VALID,22.5835,VALID,13,VALID,0,
2009-09-24, 03:52:04,VALID,1009.78,VALID,0,VALID,99.0128,VALID,0.105969,VALID,22.564,VALID,13,VALID,0,
2009-09-24, 03:53:04,VALID,1009.79,VALID,0,VALID,98.9975,VALID,0.105969,VALID,22.564,VALID,13,VALID,0,
2009-09-24, 03:54:04,VALID,1009.77,VALID,0,VALID,98.9975,VALID,0.105969,VALID,22.564,VALID,13,VALID,0,